Regional Weather Roundup
Issued by NWS Albany, NY

Home | Current Version | Previous Version | Text Only | Print | Product List | Glossary On
Versions: 1 2 3 4 5 6 7 8 9 10 11 12 13 14 15 16 17 18 19 20 21 22 23 24 25 26 27
000
ASUS41 KALY 220110
RWRALY

NEW YORK STATE HOURLY WEATHER ROUNDUP
NATIONAL WEATHER SERVICE ALBANY NY
800 PM EST WED FEB 21 2018

NOTE: "FAIR" INDICATES FEW OR NO CLOUDS BELOW 12,000 FEET WITH NO
SIGNIFICANT WEATHER AND/OR NO OBSTRUCTIONS TO VISIBILITY.

NYZ032-033-038>043-046>054-057>066-NYZ062>081-082-084-220200-
EAST


CITY           SKY/WX    TMP DP  RH WIND       PRES   REMARKS
ALBANY         CLOUDY    43  34  70 W18G30    30.44R
GLENS FALLS    CLOUDY    49  39  68 N16       30.40R
POUGHKEEPSIE   CLOUDY    58  46  64 N12       30.34R
NEWBURGH       MOCLDY    63  52  67 NW7       30.33R
MONTGOMERY     CLOUDY    58  46  64 W14       30.33R
WHITE PLAINS   MOCLDY    66  53  63 NW15      30.29R
ISLIP          FAIR      53  51  93 SW9       30.28R
NEW YORK CITY  LGT RAIN  66  53  63 NW15      30.29R
CENTRAL PARK   CLOUDY    69  54  58 VRB7G18   30.33R
$$

NYZ005>009-017-018-044>046-055-056-220200-
CENTRAL


CITY           SKY/WX    TMP DP  RH WIND       PRES   REMARKS
FULTON         MOCLDY    35  32  88 W10       30.54R WCI  27
SYRACUSE       CLOUDY    36  31  82 W8        30.55R WCI  30
ROME           CLOUDY    36  34  92 W7        30.53R WCI  30
ELMIRA         CLOUDY    42  32  67 CALM      30.51R
BINGHAMTON     CLOUDY    37  34  89 NW10      30.46R WCI  30
MONTICELLO     CLOUDY    48  41  76 NW16      30.41R
$$

NYZ026>034-041>043-087-220200-
NORTH


CITY           SKY/WX    TMP DP  RH WIND       PRES   REMARKS
WATERTOWN      CLOUDY    36  34  92 SW6       30.53R WCI  31
FORT DRUM      NOT AVBL
OGDENSBURG     FAIR      35  30  84 CALM      30.52R
MASSENA        FAIR      32  32 100 W3        30.51R
SARANAC LAKE   FAIR      31  29  92 CALM      30.43R
PLATTSBURGH    FAIR      38  26  62 NW8       30.46R WCI  32
$$

NYZ001>004-010>016-019>021-085-220200-
WEST


CITY           SKY/WX    TMP DP  RH WIND       PRES   REMARKS
NIAGARA FALLS  FAIR      37  28  70 CALM      30.57R
BUFFALO        CLOUDY    36  30  79 N3        30.56S
DUNKIRK        FAIR      35  30  82 CALM      30.57R
JAMESTOWN        N/A    N/A N/A N/A MISG        N/A
WELLSVILLE     CLOUDY    36  33  89 VRB3      30.49S
ROCHESTER      MOCLDY    36  27  69 W8        30.56R WCI  30
PENN YAN       CLOUDY    39  24  55 NW3       30.53R
$$

             KEY
       WCI = WIND CHILL INDEX
       VSB = VISIBILITY
       HX  = HEAT INDEX
$$




USA.gov is the U.S. government's official web portal to all federal, state and local government web resources and services.